Location: Melizzano
(41.1500°N, 14.5000°E)
Time: 09:05:09
(UTC+00:00)

USA 81 - Pass Details

Date: 11 May 2021
Orbit: 784 x 789 km, 85.0° (Epoch: 12 June)

Event Time Altitude Azimuth Distance (km) Brightness Sun altitude
Rises 23:43:39 0° 356° (N) 3,294 8.4 -29.8°
Reaches altitude 10° 23:46:02 10° 357° (N) 2,360 7.4 -29.7°
Enters shadow 23:50:39 68° 13° (NNE) 851 4.3 -29.5°
